• In Spain
  • List of Countries
  • For 7 days
  • Water Temperature
  • Satellite Maps
  • Weather Map
  • Weather Widgets
  • user-avatar
    Login

    Hourly Weather Biskira

    Today, 16 October, Tuesday

    Time Temperature Precipitation Wind Pressure Humidity
    00:00 +24°C° 0 mm 1 mps 751 mmHg 64%
    01:00 +24°C° 0.7 mm 1 mps 750 mmHg 65%
    02:00 +24°C° 0.7 mm 2 mps 750 mmHg 66%
    03:00 +24°C° 0.7 mm 2 mps 750 mmHg 67%
    04:00 +22°C° 1.6 mm 3 mps 750 mmHg 69%
    05:00 +22°C° 1.6 mm 3 mps 751 mmHg 72%
    06:00 +22°C° 1.6 mm 4 mps 751 mmHg 75%
    07:00 +22°C° 1.1 mm 4 mps 751 mmHg 70%
    08:00 +23°C° 1.1 mm 4 mps 751 mmHg 64%
    09:00 +25°C° 1.1 mm 4 mps 751 mmHg 59%
    10:00 +26°C° 0.4 mm 5 mps 751 mmHg 56%
    11:00 +26°C° 0.4 mm 5 mps 751 mmHg 52%
    12:00 +27°C° 0.4 mm 5 mps 751 mmHg 49%
    13:00 +28°C° 0 mm 5 mps 750 mmHg 47%
    14:00 +28°C° 0 mm 5 mps 749 mmHg 45%
    15:00 +28°C° 0 mm 5 mps 749 mmHg 43%
    16:00 +28°C° 0 mm 4 mps 749 mmHg 45%
    17:00 +27°C° 0 mm 3 mps 749 mmHg 48%
    18:00 +27°C° 0 mm 2 mps 749 mmHg 50%
    19:00 +26°C° 0 mm 2 mps 749 mmHg 52%
    20:00 +26°C° 0 mm 3 mps 749 mmHg 54%
    21:00 +25°C° 0 mm 3 mps 750 mmHg 55%
    22:00 +25°C° 0.1 mm 4 mps 749 mmHg 57%
    23:00 +23°C° 0.1 mm 5 mps 749 mmHg 60%

    Tomorrow, 17 October, Wednesday

    Time Temperature Precipitation Wind Pressure Humidity
    00:00 +22°C° 0.1 mm 6 mps 749 mmHg 62%
    01:00 +22°C° 0.3 mm 6 mps 749 mmHg 62%
    02:00 +22°C° 0.3 mm 5 mps 748 mmHg 63%
    03:00 +22°C° 0.3 mm 5 mps 748 mmHg 63%
    04:00 +22°C° 1 mm 6 mps 747 mmHg 65%
    05:00 +22°C° 1 mm 6 mps 747 mmHg 67%
    06:00 +22°C° 1 mm 7 mps 747 mmHg 68%
    07:00 +22°C° 1.3 mm 7 mps 747 mmHg 65%
    08:00 +23°C° 1.3 mm 7 mps 747 mmHg 62%
    09:00 +24°C° 1.3 mm 7 mps 747 mmHg 58%
    10:00 +26°C° 1.1 mm 7 mps 746 mmHg 56%
    11:00 +26°C° 1.1 mm 7 mps 746 mmHg 54%
    12:00 +27°C° 1.1 mm 7 mps 745 mmHg 51%
    13:00 +27°C° 1.2 mm 7 mps 745 mmHg 51%
    14:00 +27°C° 1.2 mm 7 mps 744 mmHg 52%
    15:00 +27°C° 1.2 mm 7 mps 743 mmHg 52%
    16:00 +27°C° 1.7 mm 8 mps 743 mmHg 54%
    17:00 +26°C° 1.7 mm 8 mps 743 mmHg 56%
    18:00 +24°C° 1.7 mm 9 mps 743 mmHg 59%
    19:00 +24°C° 0.3 mm 9 mps 744 mmHg 59%
    20:00 +24°C° 0.3 mm 8 mps 744 mmHg 60%
    21:00 +24°C° 0.3 mm 8 mps 744 mmHg 60%
    22:00 +23°C° 0.3 mm 8 mps 744 mmHg 62%
    23:00 +23°C° 0.3 mm 7 mps 744 mmHg 65%

    Day after tomorrow, 18 October, Thursday

    Time Temperature Precipitation Wind Pressure Humidity
    00:00 +22°C° 0.3 mm 7 mps 743 mmHg 67%
    01:00 +22°C° 0.2 mm 7 mps 743 mmHg 67%
    02:00 +22°C° 0.2 mm 7 mps 743 mmHg 68%
    03:00 +22°C° 0.2 mm 7 mps 743 mmHg 68%
    04:00 +21°C° 0 mm 7 mps 743 mmHg 69%
    05:00 +21°C° 0 mm 6 mps 743 mmHg 69%
    06:00 +21°C° 0 mm 6 mps 743 mmHg 70%
    07:00 +22°C° 0 mm 6 mps 743 mmHg 65%
    08:00 +23°C° 0 mm 5 mps 743 mmHg 60%
    09:00 +25°C° 0 mm 5 mps 744 mmHg 55%
    10:00 +26°C° 0 mm 4 mps 744 mmHg 52%
    11:00 +27°C° 0 mm 4 mps 743 mmHg 49%
    12:00 +28°C° 0 mm 3 mps 743 mmHg 46%
    13:00 +28°C° 0 mm 3 mps 743 mmHg 45%
    14:00 +28°C° 0 mm 3 mps 743 mmHg 44%
    15:00 +28°C° 0 mm 3 mps 743 mmHg 43%
    16:00 +28°C° 0 mm 3 mps 743 mmHg 46%
    17:00 +27°C° 0 mm 3 mps 744 mmHg 49%
    18:00 +26°C° 0 mm 3 mps 745 mmHg 52%
    19:00 +26°C° 0 mm 2 mps 745 mmHg 54%
    20:00 +26°C° 0 mm 2 mps 746 mmHg 56%
    21:00 +25°C° 0 mm 2 mps 746 mmHg 58%
    22:00 +25°C° 0 mm 2 mps 746 mmHg 60%
    23:00 +25°C° 0 mm 1 mps 746 mmHg 61%

    19 October, Friday

    Time Temperature Precipitation Wind Pressure Humidity
    00:00 +24°C° 0 mm 1 mps 747 mmHg 62%
    01:00 +24°C° 0 mm 1 mps 747 mmHg 63%
    02:00 +24°C° 0 mm 1 mps 747 mmHg 64%
    03:00 +23°C° 0 mm 1 mps 747 mmHg 65%
    04:00 +23°C° 0 mm 1 mps 747 mmHg 65%
    05:00 +23°C° 0 mm 1 mps 748 mmHg 66%
    06:00 +23°C° 0 mm 1 mps 748 mmHg 67%
    07:00 +24°C° 0 mm 1 mps 749 mmHg 61%
    08:00 +25°C° 0 mm 1 mps 749 mmHg 55%
    09:00 +26°C° 0 mm 1 mps 750 mmHg 50%
    10:00 +27°C° 0 mm 1 mps 750 mmHg 47%
    11:00 +28°C° 0 mm 1 mps 750 mmHg 44%
    12:00 +28°C° 0 mm 1 mps 750 mmHg 41%
    13:00 +29°C° 0 mm 1 mps 750 mmHg 39%
    14:00 +29°C° 0 mm 1 mps 750 mmHg 38%
    15:00 +29°C° 0 mm 1 mps 750 mmHg 36%
    16:00 +29°C° 0 mm 1 mps 750 mmHg 40%
    17:00 +28°C° 0 mm 1 mps 751 mmHg 44%
    18:00 +27°C° 0 mm 1 mps 751 mmHg 48%
    19:00 +27°C° 0 mm 1 mps 752 mmHg 49%
    20:00 +26°C° 0 mm 1 mps 752 mmHg 50%
    21:00 +24°C° 0 mm 0 mps 753 mmHg 52%
    22:00 +26°C° 0 mm 1 mps 753 mmHg 52%
    23:00 +25°C° 0 mm 1 mps 753 mmHg 52%

    20 October, Saturday

    Time Temperature Precipitation Wind Pressure Humidity
    00:00 +25°C° 0 mm 1 mps 753 mmHg 53%
    01:00 +25°C° 0 mm 1 mps 753 mmHg 53%
    02:00 +24°C° 0 mm 1 mps 753 mmHg 54%
    03:00 +24°C° 0 mm 2 mps 753 mmHg 55%
    04:00 +24°C° 0 mm 2 mps 753 mmHg 56%
    05:00 +24°C° 0 mm 2 mps 753 mmHg 57%
    06:00 +24°C° 0 mm 2 mps 753 mmHg 58%
    07:00 +25°C° 0 mm 2 mps 754 mmHg 55%
    08:00 +26°C° 0 mm 3 mps 754 mmHg 52%
    09:00 +27°C° 0 mm 4 mps 755 mmHg 50%
    10:00 +28°C° 0 mm 3 mps 754 mmHg 48%
    11:00 +28°C° 0 mm 3 mps 754 mmHg 46%
    12:00 +29°C° 0 mm 3 mps 754 mmHg 44%
    13:00 +29°C° 0 mm 3 mps 754 mmHg 43%
    14:00 +29°C° 0 mm 3 mps 753 mmHg 42%
    15:00 +29°C° 0 mm 2 mps 753 mmHg 41%
    16:00 +29°C° 0 mm 2 mps 753 mmHg 44%
    17:00 +28°C° 0 mm 2 mps 753 mmHg 48%
    18:00 +27°C° 0 mm 1 mps 753 mmHg 51%
    19:00 +27°C° 0 mm 1 mps 754 mmHg 52%
    20:00 +27°C° 0 mm 1 mps 754 mmHg 54%
    21:00 +26°C° 0 mm 1 mps 754 mmHg 56%
    22:00 +26°C° 0 mm 1 mps 754 mmHg 56%
    23:00 +25°C° 0 mm 1 mps 754 mmHg 57%

    21 October, Sunday

    Time Temperature Precipitation Wind Pressure Humidity
    00:00 +25°C° 0 mm 1 mps 754 mmHg 57%
    01:00 +25°C° 0 mm 1 mps 754 mmHg 58%
    02:00 +25°C° 0 mm 1 mps 754 mmHg 59%
    03:00 +24°C° 0 mm 1 mps 753 mmHg 60%
    04:00 +24°C° 0 mm 1 mps 753 mmHg 62%
    05:00 +24°C° 0 mm 1 mps 754 mmHg 64%
    06:00 +23°C° 0 mm 1 mps 754 mmHg 66%
    07:00 +24°C° 0 mm 1 mps 754 mmHg 63%
    08:00 +25°C° 0 mm 1 mps 754 mmHg 60%
    09:00 +27°C° 0 mm 1 mps 754 mmHg 57%
    10:00 +27°C° 0 mm 1 mps 754 mmHg 55%
    11:00 +28°C° 0 mm 1 mps 754 mmHg 52%
    12:00 +29°C° 0 mm 1 mps 753 mmHg 50%
    13:00 +29°C° 0 mm 1 mps 753 mmHg 47%
    14:00 +29°C° 0 mm 1 mps 753 mmHg 45%
    15:00 +29°C° 0 mm 1 mps 752 mmHg 43%
    16:00 +29°C° 0 mm 1 mps 752 mmHg 46%
    17:00 +28°C° 0 mm 1 mps 753 mmHg 49%
    18:00 +28°C° 0 mm 1 mps 753 mmHg 52%
    19:00 +27°C° 0 mm 1 mps 753 mmHg 53%
    20:00 +27°C° 0 mm 1 mps 753 mmHg 54%
    21:00 +27°C° 0 mm 1 mps 754 mmHg 55%
    22:00 +26°C° 0 mm 1 mps 754 mmHg 56%
    23:00 +26°C° 0 mm 2 mps 754 mmHg 56%
    Show more